FALCON 9 DEB (44977 NORAD) Tracking and Keplerian Element Data

This shows tracking and keplerian element data for the satellite.

Feedback or suggestion? Click here.




ElementValue
Catalog44977
NameFALCON 9 DEB
Epoch Orbit891
Epoch Day62.50287986
Epoch Year2020
RAAN108.4431
Inclination52.9824
Eccentricity0.0002196
Argument of Perigee20.5343
Mean Anonmoly339.5789
Mean Motion16.35624857
Decay Rate0.03671776
L11 44977U 20001BR 20062.50287986 .03671776 12265-4 44422-3 0 9995
L22 44977 52.9824 108.4431 0002196 20.5343 339.5789 16.35624857 8918

Live tracking and technical data element details for FALCON 9 DEB (NORAD 44977). FALCON 9 DEB can be tracked NOW for your location showing map with azimuth and elevation plus other details from your city location.

Track the satellite on the map from your city or location and see movement details for azimuth, elevation, latitude, longitude, range, height, and movement on the map or in text.







IsCatalogInMostPopularTable: catalog: 44977, numindb: 31
Update: records affected: 1



GetName: 44977 FALCON 9 DEB

Hit Count: updated at: Thu, 16 Jul 2020 03:38:10 GMT